Time,TemperatureF,DewpointF,PressureIn,WindDirection,WindDirectionDegrees,WindSpeedMPH,WindSpeedGustMPH,Humidity,HourlyPrecipIn,Conditions,Clouds,dailyrainin,SoftwareType,DateUTC
2013-02-07 00:00:00,41.2,25.3,30.26,North,0,0.0,0.0,53,0.00,,,0.00,WUHU216HW,2013-02-07 05:00:00,
2013-02-07 00:05:00,41.8,25.8,30.26,North,0,0.0,0.0,53,0.00,,,0.00,WUHU216HW,2013-02-07 05:05:00,
2013-02-07 00:10:00,42.1,26.2,30.26,North,0,0.0,0.0,53,0.00,,,0.00,WUHU216HW,2013-02-07 05:10:00,
2013-02-07 00:15:00,42.5,26.6,30.25,North,0,0.0,0.0,53,0.00,,,0.00,WUHU216HW,2013-02-07 05:15:00,
2013-02-07 00:20:00,42.7,26.6,30.25,North,0,0.0,0.0,53,0.00,,,0.00,WUHU216HW,2013-02-07 05:20:00,
2013-02-07 00:25:00,42.8,26.8,30.25,North,0,0.0,0.0,53,0.00,,,0.00,WUHU216HW,2013-02-07 05:25:00,
2013-02-07 00:30:00,42.8,26.8,30.25,North,0,0.0,0.0,53,0.00,,,0.00,WUHU216HW,2013-02-07 05:30:00,
2013-02-07 00:35:00,42.8,26.8,30.25,North,0,0.0,0.0,53,0.00,,,0.00,WUHU216HW,2013-02-07 05:35:00,
2013-02-07 00:40:00,42.8,26.8,30.25,North,0,0.0,0.0,53,0.00,,,0.00,WUHU216HW,2013-02-07 05:40:00,
2013-02-07 00:45:00,42.8,26.8,30.25,North,0,0.0,0.0,53,0.00,,,0.00,WUHU216HW,2013-02-07 05:45:00,
2013-02-07 00:50:00,42.8,26.8,30.25,North,0,0.0,0.0,53,0.00,,,0.00,WUHU216HW,2013-02-07 05:50:00,
2013-02-07 00:55:00,42.8,27.3,30.25,North,0,0.0,0.0,54,0.00,,,0.00,WUHU216HW,2013-02-07 05:55:00,
2013-02-07 01:00:00,42.8,27.3,30.25,North,0,0.0,0.0,54,0.00,,,0.00,WUHU216HW,2013-02-07 06:00:00,
2013-02-07 01:05:00,42.8,27.3,30.25,North,0,0.0,0.0,54,0.00,,,0.00,WUHU216HW,2013-02-07 06:05:00,
2013-02-07 01:10:00,42.7,27.1,30.25,North,0,0.0,0.0,54,0.00,,,0.00,WUHU216HW,2013-02-07 06:10:00,
2013-02-07 01:15:00,42.7,27.5,30.25,North,0,0.0,0.0,55,0.00,,,0.00,WUHU216HW,2013-02-07 06:15:00,
2013-02-07 01:20:00,42.5,27.4,30.25,North,0,0.0,0.0,55,0.00,,,0.00,WUHU216HW,2013-02-07 06:20:00,
2013-02-07 01:25:00,42.5,27.8,30.25,North,0,0.0,0.0,56,0.00,,,0.00,WUHU216HW,2013-02-07 06:25:00,
2013-02-07 01:30:00,42.3,27.6,30.26,North,0,0.0,0.0,56,0.00,,,0.00,WUHU216HW,2013-02-07 06:30:00,
2013-02-07 01:35:00,42.3,27.6,30.25,North,0,0.0,0.0,56,0.00,,,0.00,WUHU216HW,2013-02-07 06:35:00,
2013-02-07 01:40:00,42.1,27.9,30.25,North,0,0.0,0.0,57,0.00,,,0.00,WUHU216HW,2013-02-07 06:40:00,
2013-02-07 01:45:00,42.1,28.4,30.25,North,0,0.0,0.0,58,0.00,,,0.00,WUHU216HW,2013-02-07 06:45:00,
2013-02-07 01:50:00,41.9,27.7,30.25,North,0,0.0,0.0,57,0.00,,,0.00,WUHU216HW,2013-02-07 06:50:00,
2013-02-07 01:55:00,41.9,28.2,30.25,North,0,0.0,0.0,58,0.00,,,0.00,WUHU216HW,2013-02-07 06:55:00,
2013-02-07 02:00:00,41.8,28.4,30.25,North,0,0.0,0.0,59,0.00,,,0.00,WUHU216HW,2013-02-07 07:00:00,
2013-02-07 02:05:00,41.8,28.4,30.25,North,0,0.0,0.0,59,0.00,,,0.00,WUHU216HW,2013-02-07 07:05:00,
2013-02-07 02:10:00,41.6,28.7,30.25,North,0,0.0,0.0,60,0.00,,,0.00,WUHU216HW,2013-02-07 07:10:00,
2013-02-07 02:15:00,41.4,29.0,30.25,North,0,0.0,0.0,61,0.00,,,0.00,WUHU216HW,2013-02-07 07:15:00,
2013-02-07 02:20:00,41.2,29.2,30.25,North,0,0.0,0.0,62,0.00,,,0.00,WUHU216HW,2013-02-07 07:20:00,
2013-02-07 02:25:00,41.2,29.5,30.25,North,0,0.0,0.0,63,0.00,,,0.00,WUHU216HW,2013-02-07 07:25:00,
2013-02-07 02:30:00,41.0,29.4,30.25,North,0,0.0,0.0,63,0.00,,,0.00,WUHU216HW,2013-02-07 07:30:00,
2013-02-07 02:35:00,41.0,29.4,30.25,North,0,0.0,0.0,63,0.00,,,0.00,WUHU216HW,2013-02-07 07:35:00,
2013-02-07 02:40:00,40.9,29.6,30.26,North,0,0.0,0.0,64,0.00,,,0.00,WUHU216HW,2013-02-07 07:40:00,
2013-02-07 02:45:00,40.9,29.6,30.26,North,0,0.0,0.0,64,0.00,,,0.00,WUHU216HW,2013-02-07 07:45:00,
2013-02-07 02:50:00,40.7,29.8,30.26,North,0,0.0,0.0,65,0.00,,,0.00,WUHU216HW,2013-02-07 07:50:00,
2013-02-07 02:55:00,40.7,29.8,30.26,North,0,0.0,0.0,65,0.00,,,0.00,WUHU216HW,2013-02-07 07:55:00,
2013-02-07 03:00:00,40.7,29.8,30.26,North,0,0.0,0.0,65,0.00,,,0.00,WUHU216HW,2013-02-07 08:00:00,
2013-02-07 03:05:00,40.5,30.0,30.26,North,0,0.0,0.0,66,0.00,,,0.00,WUHU216HW,2013-02-07 08:05:00,
2013-02-07 03:10:00,40.3,30.2,30.26,North,0,0.0,0.0,67,0.00,,,0.00,WUHU216HW,2013-02-07 08:10:00,
2013-02-07 03:15:00,40.1,29.6,30.26,North,0,0.0,0.0,66,0.00,,,0.00,WUHU216HW,2013-02-07 08:15:00,
2013-02-07 03:20:00,40.0,29.8,30.26,North,0,0.0,0.0,67,0.00,,,0.00,WUHU216HW,2013-02-07 08:20:00,
2013-02-07 03:25:00,40.0,29.8,30.26,North,0,0.0,0.0,67,0.00,,,0.00,WUHU216HW,2013-02-07 08:25:00,
2013-02-07 03:30:00,40.0,29.4,30.26,North,0,0.0,0.0,66,0.00,,,0.00,WUHU216HW,2013-02-07 08:30:00,
2013-02-07 03:35:00,39.8,29.6,30.25,North,0,0.0,0.0,67,0.00,,,0.00,WUHU216HW,2013-02-07 08:35:00,
2013-02-07 03:40:00,39.6,29.4,30.26,North,0,0.0,0.0,67,0.00,,,0.00,WUHU216HW,2013-02-07 08:40:00,
2013-02-07 03:45:00,39.6,29.4,30.25,North,0,0.0,0.0,67,0.00,,,0.00,WUHU216HW,2013-02-07 08:45:00,
2013-02-07 03:50:00,39.6,29.4,30.25,North,0,0.0,0.0,67,0.00,,,0.00,WUHU216HW,2013-02-07 08:50:00,
2013-02-07 03:55:00,39.4,29.3,30.25,North,0,0.0,0.0,67,0.00,,,0.00,WUHU216HW,2013-02-07 08:55:00,
2013-02-07 04:00:00,39.4,29.3,30.26,North,0,0.0,0.0,67,0.00,,,0.00,WUHU216HW,2013-02-07 09:00:00,
2013-02-07 04:05:00,39.4,29.3,30.26,North,0,0.0,0.0,67,0.00,,,0.00,WUHU216HW,2013-02-07 09:05:00,
2013-02-07 04:10:00,39.2,29.1,30.26,North,0,0.0,0.0,67,0.00,,,0.00,WUHU216HW,2013-02-07 09:10:00,
2013-02-07 04:15:00,39.2,29.1,30.26,North,0,0.0,0.0,67,0.00,,,0.00,WUHU216HW,2013-02-07 09:15:00,
2013-02-07 04:20:00,39.1,29.0,30.26,North,0,0.0,0.0,67,0.00,,,0.00,WUHU216HW,2013-02-07 09:20:00,
2013-02-07 04:25:00,39.1,29.0,30.26,North,0,0.0,0.0,67,0.00,,,0.00,WUHU216HW,2013-02-07 09:25:00,
2013-02-07 04:30:00,39.1,29.0,30.27,North,0,0.0,0.0,67,0.00,,,0.00,WUHU216HW,2013-02-07 09:30:00,
2013-02-07 04:35:00,38.9,28.8,30.27,North,0,0.0,0.0,67,0.00,,,0.00,WUHU216HW,2013-02-07 09:35:00,
2013-02-07 04:40:00,38.7,28.3,30.27,North,0,0.0,0.0,66,0.00,,,0.00,WUHU216HW,2013-02-07 09:40:00,
2013-02-07 04:45:00,38.7,28.3,30.27,North,0,0.0,0.0,66,0.00,,,0.00,WUHU216HW,2013-02-07 09:45:00,
2013-02-07 04:50:00,38.5,28.1,30.27,North,0,0.0,0.0,66,0.00,,,0.00,WUHU216HW,2013-02-07 09:50:00,
2013-02-07 04:55:00,38.5,27.7,30.27,North,0,0.0,0.0,65,0.00,,,0.00,WUHU216HW,2013-02-07 09:55:00,
2013-02-07 05:00:00,38.5,28.1,30.27,North,0,0.0,0.0,66,0.00,,,0.00,WUHU216HW,2013-02-07 10:00:00,
2013-02-07 05:05:00,38.3,27.9,30.27,North,0,0.0,0.0,66,0.00,,,0.00,WUHU216HW,2013-02-07 10:05:00,
2013-02-07 05:10:00,38.3,27.9,30.27,North,0,0.0,0.0,66,0.00,,,0.00,WUHU216HW,2013-02-07 10:10:00,
2013-02-07 05:15:00,38.3,27.9,30.27,North,0,0.0,0.0,66,0.00,,,0.00,WUHU216HW,2013-02-07 10:15:00,
2013-02-07 05:20:00,38.2,26.7,30.27,North,0,0.0,0.0,63,0.00,,,0.00,WUHU216HW,2013-02-07 10:20:00,
2013-02-07 05:25:00,38.2,27.4,30.27,North,0,0.0,0.0,65,0.00,,,0.00,WUHU216HW,2013-02-07 10:25:00,
2013-02-07 05:30:00,38.2,27.4,30.28,North,0,0.0,0.0,65,0.00,,,0.00,WUHU216HW,2013-02-07 10:30:00,
2013-02-07 05:35:00,38.0,27.2,30.29,North,0,0.0,0.0,65,0.00,,,0.00,WUHU216HW,2013-02-07 10:35:00,
2013-02-07 05:40:00,37.8,27.5,30.29,North,0,0.0,0.0,66,0.00,,,0.00,WUHU216HW,2013-02-07 10:40:00,
2013-02-07 05:45:00,37.6,26.9,30.30,North,0,0.0,0.0,65,0.00,,,0.00,WUHU216HW,2013-02-07 10:45:00,
2013-02-07 05:50:00,37.8,27.5,30.30,North,0,0.0,0.0,66,0.00,,,0.00,WUHU216HW,2013-02-07 10:50:00,
2013-02-07 05:55:00,37.6,27.3,30.30,North,0,0.0,0.0,66,0.00,,,0.00,WUHU216HW,2013-02-07 10:55:00,
2013-02-07 06:00:00,37.6,27.3,30.30,North,0,0.0,0.0,66,0.00,,,0.00,WUHU216HW,2013-02-07 11:00:00,
2013-02-07 06:05:00,37.6,27.6,30.30,North,0,0.0,0.0,67,0.00,,,0.00,WUHU216HW,2013-02-07 11:05:00,
2013-02-07 06:10:00,37.8,27.5,30.31,North,0,0.0,0.0,66,0.00,,,0.00,WUHU216HW,2013-02-07 11:10:00,
2013-02-07 06:15:00,37.8,27.5,30.30,North,0,0.0,0.0,66,0.00,,,0.00,WUHU216HW,2013-02-07 11:15:00,
2013-02-07 06:20:00,37.6,27.3,30.31,North,0,0.0,0.0,66,0.00,,,0.00,WUHU216HW,2013-02-07 11:20:00,
2013-02-07 06:25:00,37.8,27.5,30.31,North,0,0.0,0.0,66,0.00,,,0.00,WUHU216HW,2013-02-07 11:25:00,
2013-02-07 06:30:00,37.6,27.6,30.31,North,0,0.0,0.0,67,0.00,,,0.00,WUHU216HW,2013-02-07 11:30:00,
2013-02-07 06:35:00,37.6,27.3,30.31,North,0,0.0,0.0,66,0.00,,,0.00,WUHU216HW,2013-02-07 11:35:00,
2013-02-07 06:40:00,37.6,27.3,30.31,North,0,0.0,0.0,66,0.00,,,0.00,WUHU216HW,2013-02-07 11:40:00,
2013-02-07 06:45:00,37.4,27.1,30.31,North,0,0.0,0.0,66,0.00,,,0.00,WUHU216HW,2013-02-07 11:45:00,
2013-02-07 06:50:00,37.3,27.3,30.31,North,0,0.0,0.0,67,0.00,,,0.00,WUHU216HW,2013-02-07 11:50:00,
2013-02-07 06:55:00,37.1,27.2,30.31,North,0,0.0,0.0,67,0.00,,,0.00,WUHU216HW,2013-02-07 11:55:00,
2013-02-07 07:00:00,37.1,26.7,30.31,North,0,0.0,0.0,66,0.00,,,0.00,WUHU216HW,2013-02-07 12:00:00,
2013-02-07 07:05:00,37.1,27.2,30.31,North,0,0.0,0.0,67,0.00,,,0.00,WUHU216HW,2013-02-07 12:05:00,
2013-02-07 07:10:00,36.9,24.4,30.31,North,0,0.0,0.0,60,0.00,,,0.00,WUHU216HW,2013-02-07 12:10:00,
2013-02-07 07:15:00,36.9,25.8,30.31,North,0,0.0,0.0,64,0.00,,,0.00,WUHU216HW,2013-02-07 12:15:00,
2013-02-07 07:20:00,37.1,25.3,30.31,North,0,0.0,0.0,62,0.00,,,0.00,WUHU216HW,2013-02-07 12:20:00,
2013-02-07 07:25:00,37.1,26.0,30.31,North,0,0.0,0.0,64,0.00,,,0.00,WUHU216HW,2013-02-07 12:25:00,
2013-02-07 07:30:00,37.1,26.0,30.31,North,0,0.0,0.0,64,0.00,,,0.00,WUHU216HW,2013-02-07 12:30:00,
2013-02-07 07:35:00,37.1,25.7,30.31,North,0,0.0,0.0,63,0.00,,,0.00,WUHU216HW,2013-02-07 12:35:00,
2013-02-07 07:40:00,37.1,25.7,30.31,North,0,0.0,0.0,63,0.00,,,0.00,WUHU216HW,2013-02-07 12:40:00,
2013-02-07 07:45:00,37.1,24.5,30.31,North,0,0.0,0.0,60,0.00,,,0.00,WUHU216HW,2013-02-07 12:45:00,
2013-02-07 07:50:00,37.1,25.7,30.30,North,0,0.0,0.0,63,0.00,,,0.00,WUHU216HW,2013-02-07 12:50:00,
2013-02-07 07:55:00,37.1,24.9,30.31,North,0,0.0,0.0,61,0.00,,,0.00,WUHU216HW,2013-02-07 12:55:00,
2013-02-07 08:00:00,37.1,23.2,30.31,North,0,0.0,0.0,57,0.00,,,0.00,WUHU216HW,2013-02-07 13:00:00,
2013-02-07 08:05:00,37.1,24.5,30.31,North,0,0.0,0.0,60,0.00,,,0.00,WUHU216HW,2013-02-07 13:05:00,
2013-02-07 08:10:00,37.3,24.7,30.31,North,0,0.0,0.0,60,0.00,,,0.00,WUHU216HW,2013-02-07 13:10:00,
2013-02-07 08:15:00,37.4,23.1,30.32,North,0,0.0,0.0,56,0.00,,,0.00,WUHU216HW,2013-02-07 13:15:00,
2013-02-07 08:20:00,37.6,22.4,30.31,North,0,0.0,0.0,54,0.00,,,0.00,WUHU216HW,2013-02-07 13:20:00,
2013-02-07 08:25:00,37.6,23.3,30.31,North,0,0.0,0.0,56,0.00,,,0.00,WUHU216HW,2013-02-07 13:25:00,
2013-02-07 08:30:00,37.6,22.4,30.32,North,0,0.0,0.0,54,0.00,,,0.00,WUHU216HW,2013-02-07 13:30:00,
2013-02-07 08:35:00,37.8,24.8,30.32,North,0,0.0,0.0,59,0.00,,,0.00,WUHU216HW,2013-02-07 13:35:00,
2013-02-07 08:40:00,37.8,25.2,30.32,North,0,0.0,0.0,60,0.00,,,0.00,WUHU216HW,2013-02-07 13:40:00,
2013-02-07 08:45:00,38.2,25.0,30.32,North,0,0.0,0.0,59,0.00,,,0.00,WUHU216HW,2013-02-07 13:45:00,
2013-02-07 08:50:00,38.5,26.2,30.32,North,0,0.0,0.0,61,0.00,,,0.00,WUHU216HW,2013-02-07 13:50:00,
2013-02-07 08:55:00,38.5,26.9,30.32,North,0,0.0,0.0,63,0.00,,,0.00,WUHU216HW,2013-02-07 13:55:00,
2013-02-07 09:00:00,38.7,27.1,30.31,North,0,0.0,0.0,63,0.00,,,0.00,WUHU216HW,2013-02-07 14:00:00,
2013-02-07 09:05:00,38.7,26.0,30.31,North,0,0.0,0.0,60,0.00,,,0.00,WUHU216HW,2013-02-07 14:05:00,
2013-02-07 09:10:00,38.7,26.7,30.31,North,0,0.0,0.0,62,0.00,,,0.00,WUHU216HW,2013-02-07 14:10:00,
2013-02-07 09:15:00,38.9,26.6,30.31,North,0,0.0,0.0,61,0.00,,,0.00,WUHU216HW,2013-02-07 14:15:00,
2013-02-07 09:20:00,38.9,26.6,30.30,North,0,0.0,0.0,61,0.00,,,0.00,WUHU216HW,2013-02-07 14:20:00,
2013-02-07 09:25:00,38.9,27.3,30.31,North,0,0.0,0.0,63,0.00,,,0.00,WUHU216HW,2013-02-07 14:25:00,
2013-02-07 09:30:00,39.2,27.2,30.30,North,0,0.0,0.0,62,0.00,,,0.00,WUHU216HW,2013-02-07 14:30:00,
2013-02-07 09:35:00,39.2,27.2,30.30,North,0,0.0,0.0,62,0.00,,,0.00,WUHU216HW,2013-02-07 14:35:00,
2013-02-07 09:40:00,39.2,27.6,30.30,North,0,0.0,0.0,63,0.00,,,0.00,WUHU216HW,2013-02-07 14:40:00,
2013-02-07 09:45:00,39.2,27.6,30.30,North,0,0.0,0.0,63,0.00,,,0.00,WUHU216HW,2013-02-07 14:45:00,
2013-02-07 09:50:00,39.4,27.4,30.30,North,0,0.0,0.0,62,0.00,,,0.00,WUHU216HW,2013-02-07 14:50:00,
2013-02-07 09:55:00,39.4,27.8,30.30,North,0,0.0,0.0,63,0.00,,,0.00,WUHU216HW,2013-02-07 14:55:00,
2013-02-07 10:00:00,39.6,28.0,30.30,North,0,0.0,0.0,63,0.00,,,0.00,WUHU216HW,2013-02-07 15:00:00,
2013-02-07 10:05:00,39.8,28.2,30.30,North,0,0.0,0.0,63,0.00,,,0.00,WUHU216HW,2013-02-07 15:05:00,
2013-02-07 10:10:00,40.0,28.7,30.30,North,0,0.0,0.0,64,0.00,,,0.00,WUHU216HW,2013-02-07 15:10:00,
2013-02-07 10:15:00,40.0,28.4,30.30,North,0,0.0,0.0,63,0.00,,,0.00,WUHU216HW,2013-02-07 15:15:00,
2013-02-07 10:20:00,40.1,28.9,30.30,North,0,0.0,0.0,64,0.00,,,0.00,WUHU216HW,2013-02-07 15:20:00,
2013-02-07 10:25:00,40.1,29.3,30.30,North,0,0.0,0.0,65,0.00,,,0.00,WUHU216HW,2013-02-07 15:25:00,
2013-02-07 10:30:00,40.1,29.6,30.30,North,0,0.0,0.0,66,0.00,,,0.00,WUHU216HW,2013-02-07 15:30:00,
2013-02-07 10:36:00,40.1,29.6,30.30,North,0,0.0,0.0,66,0.00,,,0.00,WUHU216HW,2013-02-07 15:36:00,
2013-02-07 10:41:00,40.3,29.8,30.30,North,0,0.0,0.0,66,0.00,,,0.00,WUHU216HW,2013-02-07 15:41:00,
2013-02-07 10:46:00,40.3,29.8,30.30,North,0,0.0,0.0,66,0.00,,,0.00,WUHU216HW,2013-02-07 15:46:00,
2013-02-07 10:51:00,40.5,30.0,30.29,North,0,0.0,0.0,66,0.00,,,0.00,WUHU216HW,2013-02-07 15:51:00,
2013-02-07 10:56:00,40.3,29.8,30.28,North,0,0.0,0.0,66,0.00,,,0.00,WUHU216HW,2013-02-07 15:56:00,
2013-02-07 11:01:00,40.3,30.2,30.28,North,0,0.0,0.0,67,0.00,,,0.00,WUHU216HW,2013-02-07 16:01:00,
2013-02-07 11:06:00,40.3,29.8,30.27,North,0,0.0,0.0,66,0.00,,,0.00,WUHU216HW,2013-02-07 16:06:00,
2013-02-07 11:11:00,40.5,30.0,30.28,North,0,0.0,0.0,66,0.00,,,0.00,WUHU216HW,2013-02-07 16:11:00,
2013-02-07 11:16:00,40.5,30.3,30.28,North,0,0.0,0.0,67,0.00,,,0.00,WUHU216HW,2013-02-07 16:16:00,
2013-02-07 11:21:00,40.5,30.3,30.28,North,0,0.0,0.0,67,0.00,,,0.00,WUHU216HW,2013-02-07 16:21:00,
2013-02-07 11:26:00,40.7,30.5,30.28,North,0,0.0,0.0,67,0.00,,,0.00,WUHU216HW,2013-02-07 16:26:00,
2013-02-07 11:31:00,40.9,30.7,30.28,North,0,0.0,0.0,67,0.00,,,0.00,WUHU216HW,2013-02-07 16:31:00,
2013-02-07 11:36:00,41.4,31.2,30.28,North,0,0.0,0.0,67,0.00,,,0.00,WUHU216HW,2013-02-07 16:36:00,
2013-02-07 11:41:00,41.4,31.2,30.28,North,0,0.0,0.0,67,0.00,,,0.00,WUHU216HW,2013-02-07 16:41:00,
2013-02-07 11:46:00,41.8,31.6,30.27,North,0,0.0,0.0,67,0.00,,,0.00,WUHU216HW,2013-02-07 16:46:00,
2013-02-07 11:51:00,42.1,32.0,30.27,North,0,0.0,0.0,67,0.00,,,0.00,WUHU216HW,2013-02-07 16:51:00,
2013-02-07 11:56:00,42.5,32.7,30.27,North,0,0.0,0.0,68,0.00,,,0.00,WUHU216HW,2013-02-07 16:56:00,
2013-02-07 12:01:00,42.5,32.3,30.27,North,0,0.0,0.0,67,0.00,,,0.00,WUHU216HW,2013-02-07 17:01:00,
2013-02-07 12:06:00,42.3,32.1,30.26,North,0,0.0,0.0,67,0.00,,,0.00,WUHU216HW,2013-02-07 17:06:00,
2013-02-07 12:11:00,42.5,32.7,30.26,North,0,0.0,0.0,68,0.00,,,0.00,WUHU216HW,2013-02-07 17:11:00,
2013-02-07 12:16:00,42.8,32.7,30.26,North,0,0.0,0.0,67,0.00,,,0.00,WUHU216HW,2013-02-07 17:16:00,
2013-02-07 12:21:00,43.2,33.0,30.26,North,0,0.0,0.0,67,0.00,,,0.00,WUHU216HW,2013-02-07 17:21:00,
2013-02-07 12:26:00,43.4,33.1,30.25,North,0,0.0,0.0,67,0.00,,,0.00,WUHU216HW,2013-02-07 17:26:00,
2013-02-07 12:31:00,43.4,33.1,30.25,North,0,0.0,0.0,67,0.00,,,0.00,WUHU216HW,2013-02-07 17:31:00,
2013-02-07 12:36:00,43.2,33.0,30.25,North,0,0.0,0.0,67,0.00,,,0.00,WUHU216HW,2013-02-07 17:36:00,
2013-02-07 12:41:00,43.2,33.0,30.24,North,0,0.0,0.0,67,0.00,,,0.00,WUHU216HW,2013-02-07 17:41:00,
2013-02-07 12:46:00,43.6,33.3,30.24,North,0,0.0,0.0,67,0.00,,,0.00,WUHU216HW,2013-02-07 17:46:00,
2013-02-07 12:51:00,43.6,33.3,30.23,North,0,0.0,0.0,67,0.00,,,0.00,WUHU216HW,2013-02-07 17:51:00,
2013-02-07 12:56:00,43.9,33.7,30.22,North,0,0.0,0.0,67,0.00,,,0.00,WUHU216HW,2013-02-07 17:56:00,
2013-02-07 13:01:00,43.9,33.7,30.22,North,0,0.0,0.0,67,0.00,,,0.00,WUHU216HW,2013-02-07 18:01:00,
2013-02-07 13:06:00,43.9,33.7,30.22,North,0,0.0,0.0,67,0.00,,,0.00,WUHU216HW,2013-02-07 18:06:00,
2013-02-07 13:11:00,44.1,33.5,30.22,North,0,0.0,0.0,66,0.00,,,0.00,WUHU216HW,2013-02-07 18:11:00,
2013-02-07 13:16:00,44.1,33.5,30.22,North,0,0.0,0.0,66,0.00,,,0.00,WUHU216HW,2013-02-07 18:16:00,
2013-02-07 13:21:00,44.3,34.0,30.22,North,0,0.0,0.0,67,0.00,,,0.00,WUHU216HW,2013-02-07 18:21:00,
2013-02-07 13:26:00,44.5,33.8,30.22,North,0,0.0,0.0,66,0.00,,,0.00,WUHU216HW,2013-02-07 18:26:00,
2013-02-07 13:31:00,44.5,33.8,30.20,North,0,0.0,0.0,66,0.00,,,0.00,WUHU216HW,2013-02-07 18:31:00,
2013-02-07 13:36:00,44.5,33.8,30.21,North,0,0.0,0.0,66,0.00,,,0.00,WUHU216HW,2013-02-07 18:36:00,
2013-02-07 13:41:00,44.6,33.9,30.21,North,0,0.0,0.0,66,0.00,,,0.00,WUHU216HW,2013-02-07 18:41:00,
2013-02-07 13:46:00,44.6,33.9,30.20,North,0,0.0,0.0,66,0.00,,,0.00,WUHU216HW,2013-02-07 18:46:00,
2013-02-07 13:51:00,44.8,34.1,30.21,North,0,0.0,0.0,66,0.00,,,0.00,WUHU216HW,2013-02-07 18:51:00,
2013-02-07 13:56:00,44.8,33.8,30.21,North,0,0.0,0.0,65,0.00,,,0.00,WUHU216HW,2013-02-07 18:56:00,
2013-02-07 14:01:00,44.8,34.1,30.21,North,0,0.0,0.0,66,0.00,,,0.00,WUHU216HW,2013-02-07 19:01:00,
2013-02-07 14:06:00,45.0,34.3,30.21,North,0,0.0,0.0,66,0.00,,,0.00,WUHU216HW,2013-02-07 19:06:00,
2013-02-07 14:11:00,45.0,33.9,30.21,North,0,0.0,0.0,65,0.00,,,0.00,WUHU216HW,2013-02-07 19:11:00,
2013-02-07 14:16:00,45.0,34.3,30.21,North,0,0.0,0.0,66,0.00,,,0.00,WUHU216HW,2013-02-07 19:16:00,
2013-02-07 14:21:00,45.0,33.9,30.20,North,0,0.0,0.0,65,0.00,,,0.00,WUHU216HW,2013-02-07 19:21:00,
2013-02-07 14:26:00,45.2,34.5,30.20,North,0,0.0,0.0,66,0.00,,,0.00,WUHU216HW,2013-02-07 19:26:00,
2013-02-07 14:31:00,45.2,34.5,30.20,North,0,0.0,0.0,66,0.00,,,0.00,WUHU216HW,2013-02-07 19:31:00,
2013-02-07 14:36:00,45.2,34.1,30.20,North,0,0.0,0.0,65,0.00,,,0.00,WUHU216HW,2013-02-07 19:36:00,
2013-02-07 14:41:00,45.2,34.5,30.20,North,0,0.0,0.0,66,0.00,,,0.00,WUHU216HW,2013-02-07 19:41:00,
2013-02-07 14:46:00,45.2,34.1,30.20,North,0,0.0,0.0,65,0.00,,,0.00,WUHU216HW,2013-02-07 19:46:00,
2013-02-07 14:51:00,45.2,34.5,30.20,North,0,0.0,0.0,66,0.00,,,0.00,WUHU216HW,2013-02-07 19:51:00,
2013-02-07 14:56:00,45.2,34.1,30.20,North,0,0.0,0.0,65,0.00,,,0.00,WUHU216HW,2013-02-07 19:56:00,
2013-02-07 15:01:00,45.0,34.3,30.20,North,0,0.0,0.0,66,0.00,,,0.00,WUHU216HW,2013-02-07 20:01:00,
2013-02-07 15:06:00,45.2,34.5,30.20,North,0,0.0,0.0,66,0.00,,,0.00,WUHU216HW,2013-02-07 20:06:00,
2013-02-07 15:11:00,45.0,34.3,30.19,North,0,0.0,0.0,66,0.00,,,0.00,WUHU216HW,2013-02-07 20:11:00,
2013-02-07 15:16:00,45.0,34.3,30.19,North,0,0.0,0.0,66,0.00,,,0.00,WUHU216HW,2013-02-07 20:16:00,
2013-02-07 15:21:00,45.0,34.3,30.19,North,0,0.0,0.0,66,0.00,,,0.00,WUHU216HW,2013-02-07 20:21:00,
2013-02-07 15:26:00,45.2,34.5,30.19,North,0,0.0,0.0,66,0.00,,,0.00,WUHU216HW,2013-02-07 20:26:00,
2013-02-07 15:31:00,45.2,34.5,30.19,North,0,0.0,0.0,66,0.00,,,0.00,WUHU216HW,2013-02-07 20:31:00,
2013-02-07 15:36:00,45.0,34.3,30.19,North,0,0.0,0.0,66,0.00,,,0.00,WUHU216HW,2013-02-07 20:36:00,
2013-02-07 15:41:00,45.0,34.3,30.19,North,0,0.0,0.0,66,0.00,,,0.00,WUHU216HW,2013-02-07 20:41:00,
2013-02-07 15:46:00,45.0,34.3,30.19,North,0,0.0,0.0,66,0.00,,,0.00,WUHU216HW,2013-02-07 20:46:00,
2013-02-07 15:51:00,45.0,34.3,30.19,North,0,0.0,0.0,66,0.00,,,0.00,WUHU216HW,2013-02-07 20:51:00,
2013-02-07 15:56:00,45.0,34.3,30.18,North,0,0.0,0.0,66,0.00,,,0.00,WUHU216HW,2013-02-07 20:56:00,
2013-02-07 16:01:00,45.0,34.3,30.18,North,0,0.0,0.0,66,0.00,,,0.00,WUHU216HW,2013-02-07 21:01:00,
2013-02-07 16:06:00,45.0,34.3,30.18,North,0,0.0,0.0,66,0.00,,,0.00,WUHU216HW,2013-02-07 21:06:00,
2013-02-07 16:11:00,44.8,34.1,30.18,North,0,0.0,0.0,66,0.00,,,0.00,WUHU216HW,2013-02-07 21:11:00,
2013-02-07 16:16:00,45.0,34.3,30.18,North,0,0.0,0.0,66,0.00,,,0.00,WUHU216HW,2013-02-07 21:16:00,
2013-02-07 16:21:00,44.8,34.1,30.18,North,0,0.0,0.0,66,0.00,,,0.00,WUHU216HW,2013-02-07 21:21:00,
2013-02-07 16:26:00,44.8,34.5,30.18,North,0,0.0,0.0,67,0.00,,,0.00,WUHU216HW,2013-02-07 21:26:00,
2013-02-07 16:31:00,44.6,33.9,30.18,North,0,0.0,0.0,66,0.00,,,0.00,WUHU216HW,2013-02-07 21:31:00,
2013-02-07 16:36:00,44.5,34.2,30.18,North,0,0.0,0.0,67,0.00,,,0.00,WUHU216HW,2013-02-07 21:36:00,
2013-02-07 16:41:00,44.5,34.2,30.17,North,0,0.0,0.0,67,0.00,,,0.00,WUHU216HW,2013-02-07 21:41:00,
2013-02-07 16:46:00,44.3,34.0,30.17,North,0,0.0,0.0,67,0.00,,,0.00,WUHU216HW,2013-02-07 21:46:00,
2013-02-07 16:51:00,44.1,33.9,30.17,North,0,0.0,0.0,67,0.00,,,0.00,WUHU216HW,2013-02-07 21:51:00,
2013-02-07 16:56:00,43.9,34.0,30.17,North,0,0.0,0.0,68,0.00,,,0.00,WUHU216HW,2013-02-07 21:56:00,
2013-02-07 17:01:00,43.9,33.7,30.17,North,0,0.0,0.0,67,0.00,,,0.00,WUHU216HW,2013-02-07 22:01:00,
2013-02-07 17:06:00,43.6,33.0,30.17,North,0,0.0,0.0,66,0.00,,,0.00,WUHU216HW,2013-02-07 22:06:00,
2013-02-07 17:11:00,43.4,32.8,30.17,North,0,0.0,0.0,66,0.00,,,0.00,WUHU216HW,2013-02-07 22:11:00,
2013-02-07 17:16:00,43.2,32.2,30.17,North,0,0.0,0.0,65,0.01,,,0.01,WUHU216HW,2013-02-07 22:16:00,
2013-02-07 17:21:00,43.2,32.2,30.16,North,0,0.0,0.0,65,0.01,,,0.01,WUHU216HW,2013-02-07 22:21:00,
2013-02-07 17:26:00,43.0,32.4,30.17,North,0,0.0,0.0,66,0.02,,,0.02,WUHU216HW,2013-02-07 22:26:00,
2013-02-07 17:31:00,42.8,32.2,30.16,North,0,0.0,0.0,66,0.02,,,0.02,WUHU216HW,2013-02-07 22:31:00,
2013-02-07 17:36:00,42.8,31.9,30.17,North,0,0.0,0.0,65,0.03,,,0.03,WUHU216HW,2013-02-07 22:36:00,
2013-02-07 17:41:00,42.8,31.5,30.16,North,0,0.0,0.0,64,0.04,,,0.03,WUHU216HW,2013-02-07 22:41:00,
2013-02-07 17:46:00,42.7,30.2,30.16,North,0,0.0,0.0,61,0.04,,,0.04,WUHU216HW,2013-02-07 22:46:00,
2013-02-07 17:51:00,42.5,28.3,30.16,North,0,0.0,0.0,57,0.05,,,0.05,WUHU216HW,2013-02-07 22:51:00,
2013-02-07 17:56:00,42.3,26.7,30.15,North,0,0.0,0.0,54,0.06,,,0.06,WUHU216HW,2013-02-07 22:56:00,
2013-02-07 18:01:00,42.1,28.4,30.15,North,0,0.0,0.0,58,0.07,,,0.06,WUHU216HW,2013-02-07 23:01:00,
2013-02-07 18:06:00,42.1,21.2,30.15,North,0,0.0,0.0,43,0.07,,,0.07,WUHU216HW,2013-02-07 23:06:00,
2013-02-07 18:11:00,41.8,17.2,30.14,North,0,0.0,0.0,37,0.08,,,0.08,WUHU216HW,2013-02-07 23:11:00,
2013-02-07 18:16:00,41.6,20.1,30.14,North,0,0.0,0.0,42,0.08,,,0.09,WUHU216HW,2013-02-07 23:16:00,
2013-02-07 18:21:00,41.8,21.3,30.14,North,0,0.0,0.0,44,0.08,,,0.10,WUHU216HW,2013-02-07 23:21:00,
2013-02-07 18:26:00,41.8,20.3,30.14,North,0,0.0,0.0,42,0.09,,,0.11,WUHU216HW,2013-02-07 23:26:00,
2013-02-07 18:31:00,41.8,21.3,30.14,North,0,0.0,0.0,44,0.10,,,0.13,WUHU216HW,2013-02-07 23:31:00,
2013-02-07 18:36:00,41.8,17.2,30.14,North,0,0.0,0.0,37,0.10,,,0.13,WUHU216HW,2013-02-07 23:36:00,
2013-02-07 18:41:00,41.6,17.7,30.14,North,0,0.0,0.0,38,0.10,,,0.13,WUHU216HW,2013-02-07 23:41:00,
2013-02-07 18:46:00,41.4,14.3,30.14,North,0,0.0,0.0,33,0.09,,,0.15,WUHU216HW,2013-02-07 23:46:00,
2013-02-07 18:51:00,41.4,16.3,30.14,North,0,0.0,0.0,36,0.10,,,0.15,WUHU216HW,2013-02-07 23:51:00,
2013-02-07 18:56:00,41.6,8.0,30.14,North,0,0.0,0.0,25,0.10,,,0.16,WUHU216HW,2013-02-07 23:56:00,
2013-02-07 19:01:00,41.8,14.0,30.13,North,0,0.0,0.0,32,0.09,,,0.16,WUHU216HW,2013-02-08 00:01:00,
2013-02-07 19:06:00,41.6,13.8,30.13,North,0,0.0,0.0,32,0.09,,,0.18,WUHU216HW,2013-02-08 00:06:00,
2013-02-07 19:11:00,41.4,9.6,30.13,North,0,0.0,0.0,27,0.08,,,0.18,WUHU216HW,2013-02-08 00:11:00,
2013-02-07 19:16:00,41.4,6.9,30.13,North,0,0.0,0.0,24,0.09,,,0.18,WUHU216HW,2013-02-08 00:16:00,
2013-02-07 19:21:00,41.4,5.1,30.13,North,0,0.0,0.0,22,0.08,,,0.20,WUHU216HW,2013-02-08 00:21:00,
2013-02-07 19:26:00,41.4,11.4,30.12,North,0,0.0,0.0,29,0.08,,,0.20,WUHU216HW,2013-02-08 00:26:00,
2013-02-07 19:31:00,41.4,10.5,30.12,North,0,0.0,0.0,28,0.08,,,0.20,WUHU216HW,2013-02-08 00:31:00,
2013-02-07 19:36:00,41.6,5.3,30.12,North,0,0.0,0.0,22,0.08,,,0.20,WUHU216HW,2013-02-08 00:36:00,
2013-02-07 19:41:00,41.6,5.3,30.12,North,0,0.0,0.0,22,0.07,,,0.22,WUHU216HW,2013-02-08 00:41:00,
2013-02-07 19:46:00,41.4,6.9,30.12,North,0,0.0,0.0,24,0.07,,,0.22,WUHU216HW,2013-02-08 00:46:00,
2013-02-07 19:51:00,41.8,3.6,30.11,North,0,0.0,0.0,20,0.08,,,0.24,WUHU216HW,2013-02-08 00:51:00,
2013-02-07 19:56:00,41.6,5.3,30.11,North,0,0.0,0.0,22,0.08,,,0.25,WUHU216HW,2013-02-08 00:56:00,
2013-02-07 20:01:00,41.8,3.6,30.11,North,0,0.0,0.0,20,0.09,,,0.25,WUHU216HW,2013-02-08 01:01:00,
2013-02-07 20:06:00,41.8,-0.7,30.11,North,0,0.0,0.0,17,0.08,,,0.26,WUHU216HW,2013-02-08 01:06:00,
2013-02-07 20:11:00,41.8,5.4,30.11,North,0,0.0,0.0,22,0.08,,,0.27,WUHU216HW,2013-02-08 01:11:00,
2013-02-07 20:16:00,41.8,6.3,30.11,North,0,0.0,0.0,23,0.09,,,0.28,WUHU216HW,2013-02-08 01:16:00,
2013-02-07 20:21:00,41.8,2.2,30.11,North,0,0.0,0.0,19,0.08,,,0.28,WUHU216HW,2013-02-08 01:21:00,
2013-02-07 20:26:00,41.8,4.5,30.10,North,0,0.0,0.0,21,0.08,,,0.29,WUHU216HW,2013-02-08 01:26:00,
2013-02-07 20:31:00,41.9,0.9,30.10,North,0,0.0,0.0,18,0.09,,,0.29,WUHU216HW,2013-02-08 01:31:00,
2013-02-07 20:36:00,41.8,3.6,30.09,North,0,0.0,0.0,20,0.09,,,0.29,WUHU216HW,2013-02-08 01:36:00,
2013-02-07 20:41:00,41.9,-2.0,30.09,North,0,0.0,0.0,16,0.09,,,0.31,WUHU216HW,2013-02-08 01:41:00,
2013-02-07 20:46:00,41.9,-3.5,30.09,North,0,0.0,0.0,15,0.08,,,0.32,WUHU216HW,2013-02-08 01:46:00,
2013-02-07 20:51:00,41.9,-2.0,30.09,North,0,0.0,0.0,16,0.09,,,0.33,WUHU216HW,2013-02-08 01:51:00,
2013-02-07 20:56:00,41.9,-4.9,30.08,North,0,0.0,0.0,14,0.08,,,0.33,WUHU216HW,2013-02-08 01:56:00,
2013-02-07 21:01:00,41.9,-9.3,30.08,North,0,0.0,0.0,11,0.08,,,0.34,WUHU216HW,2013-02-08 02:01:00,
2013-02-07 21:06:00,41.9,-3.5,30.08,North,0,0.0,0.0,15,0.07,,,0.34,WUHU216HW,2013-02-08 02:06:00,
2013-02-07 21:11:00,42.1,-4.8,30.07,North,0,0.0,0.0,14,0.08,,,0.35,WUHU216HW,2013-02-08 02:11:00,
2013-02-07 21:16:00,41.9,-3.5,30.07,North,0,0.0,0.0,15,0.08,,,0.36,WUHU216HW,2013-02-08 02:16:00,
2013-02-07 21:21:00,41.9,-3.5,30.07,North,0,0.0,0.0,15,0.08,,,0.37,WUHU216HW,2013-02-08 02:21:00,
2013-02-07 21:26:00,41.9,-0.5,30.08,North,0,0.0,0.0,17,0.08,,,0.38,WUHU216HW,2013-02-08 02:26:00,
2013-02-07 21:31:00,42.1,1.0,30.08,North,0,0.0,0.0,18,0.09,,,0.39,WUHU216HW,2013-02-08 02:31:00,
2013-02-07 21:36:00,41.9,3.8,30.08,North,0,0.0,0.0,20,0.09,,,0.39,WUHU216HW,2013-02-08 02:36:00,
2013-02-07 21:41:00,42.1,1.0,30.08,North,0,0.0,0.0,18,0.08,,,0.40,WUHU216HW,2013-02-08 02:41:00,
2013-02-07 21:46:00,42.1,1.0,30.08,North,0,0.0,0.0,18,0.08,,,0.41,WUHU216HW,2013-02-08 02:46:00,
2013-02-07 21:51:00,42.1,5.8,30.08,North,0,0.0,0.0,22,0.09,,,0.41,WUHU216HW,2013-02-08 02:51:00,
2013-02-07 21:56:00,42.1,1.0,30.08,North,0,0.0,0.0,18,0.09,,,0.42,WUHU216HW,2013-02-08 02:56:00,
2013-02-07 22:01:00,42.1,4.0,30.07,North,0,0.0,0.0,20,0.09,,,0.43,WUHU216HW,2013-02-08 03:01:00,
2013-02-07 22:06:00,42.1,1.0,30.07,North,0,0.0,0.0,18,0.08,,,0.43,WUHU216HW,2013-02-08 03:06:00,
2013-02-07 22:11:00,42.1,-4.8,30.06,North,0,0.0,0.0,14,0.08,,,0.44,WUHU216HW,2013-02-08 03:11:00,
2013-02-07 22:16:00,42.1,-3.3,30.06,North,0,0.0,0.0,15,0.09,,,0.45,WUHU216HW,2013-02-08 03:16:00,
2013-02-07 22:21:00,42.1,-3.3,30.06,North,0,0.0,0.0,15,0.08,,,0.46,WUHU216HW,2013-02-08 03:21:00,
2013-02-07 22:26:00,42.1,-0.4,30.06,North,0,0.0,0.0,17,0.08,,,0.47,WUHU216HW,2013-02-08 03:26:00,
2013-02-07 22:31:00,42.1,4.9,30.06,North,0,0.0,0.0,21,0.09,,,0.47,WUHU216HW,2013-02-08 03:31:00,
2013-02-07 22:36:00,42.1,-4.8,30.05,North,0,0.0,0.0,14,0.08,,,0.48,WUHU216HW,2013-02-08 03:36:00,
2013-02-07 22:41:00,41.9,-7.8,30.05,North,0,0.0,0.0,12,0.08,,,0.49,WUHU216HW,2013-02-08 03:41:00,
2013-02-07 22:46:00,41.9,-7.8,30.04,North,0,0.0,0.0,12,0.09,,,0.50,WUHU216HW,2013-02-08 03:46:00,
2013-02-07 22:51:00,41.9,-10.7,30.04,North,0,0.0,0.0,10,0.09,,,0.51,WUHU216HW,2013-02-08 03:51:00,
2013-02-07 22:56:00,41.9,-4.9,30.04,North,0,0.0,0.0,14,0.10,,,0.52,WUHU216HW,2013-02-08 03:56:00,
2013-02-07 23:01:00,41.9,-9.3,30.03,North,0,0.0,0.0,11,0.10,,,0.53,WUHU216HW,2013-02-08 04:01:00,
2013-02-07 23:06:00,41.8,-10.8,30.03,North,0,0.0,0.0,10,0.10,,,0.53,WUHU216HW,2013-02-08 04:06:00,
2013-02-07 23:11:00,41.8,-7.9,30.03,North,0,0.0,0.0,12,0.09,,,0.54,WUHU216HW,2013-02-08 04:11:00,
2013-02-07 23:16:00,41.9,-9.3,30.03,North,0,0.0,0.0,11,0.10,,,0.55,WUHU216HW,2013-02-08 04:16:00,
2013-02-07 23:21:00,41.9,-9.3,30.03,North,0,0.0,0.0,11,0.08,,,0.55,WUHU216HW,2013-02-08 04:21:00,
2013-02-07 23:26:00,41.9,-10.7,30.03,North,0,0.0,0.0,10,0.09,,,0.56,WUHU216HW,2013-02-08 04:26:00,
2013-02-07 23:31:00,41.9,-10.7,30.02,North,0,0.0,0.0,9,0.09,,,0.56,WUHU216HW,2013-02-08 04:31:00,
2013-02-07 23:36:00,41.9,-10.7,30.01,North,0,0.0,0.0,10,0.08,,,0.57,WUHU216HW,2013-02-08 04:36:00,
2013-02-07 23:41:00,41.9,-10.7,30.01,North,0,0.0,0.0,10,0.08,,,0.58,WUHU216HW,2013-02-08 04:41:00,
2013-02-07 23:46:00,41.9,-9.3,30.01,North,0,0.0,0.0,11,0.08,,,0.59,WUHU216HW,2013-02-08 04:46:00,
2013-02-07 23:51:00,41.9,-7.8,30.01,North,0,0.0,0.0,12,0.08,,,0.60,WUHU216HW,2013-02-08 04:51:00,
2013-02-07 23:56:00,41.9,-7.8,30.01,North,0,0.0,0.0,12,0.09,,,0.61,WUHU216HW,2013-02-08 04:56:00,